Regional Weather Roundup
Issued by NWS Sterling, VA

Home | Current Version | Previous Version | Graphics & Text | Print | Product List | Glossary On
Versions: 1 2 3 4 5 6 7 8 9 10 11 12 13 14 15 16 17 18 19 20 21 22 23 24 25 26 27
000
ASUS41 KLWX 191211
RWRLWX

REGIONAL WEATHER ROUNDUP
NATIONAL WEATHER SERVICE BALTIMORE MD/WASHINGTON DC
800 AM EDT SAT AUG 19 2017

Note: "FAIR" indicates few or no clouds below 12,000 feet
with no significant weather and/or obstructions to visibility.
 TC=TEMPERATURE CELSIUS

 * =Non NWS site. Station does not report precipitation (e.g. rain,
    snow, etc.), thunder, or fog.

DCZ001-MDZ009-015-VAZ040>042-051-053>054-191300-
WASHINGTON METRO

CITY           SKY/WX    TMP DP  RH WIND       PRES   REMARKS
WASHINGTON NAT PTSUNNY   79  69  71 N6        29.90R
DULLES         MOSUNNY   76  67  73 NW7       29.90R
ANDREWS AFB    SUNNY     76  65  69 NW10      29.89R
FT BELVOIR     MOSUNNY   76  70  81 CALM      29.89R
QUANTICO       SUNNY     77  71  82 NW5       29.90R
COLLEGE PARK*  PTSUNNY   75  68  78 NW5       29.89R
LEESBURG*      SUNNY     75  70  83 CALM      29.92R
MANASSAS*      MOSUNNY   76  70  82 W3        29.91R
GAITHERSBURG*  SUNNY     72  68  87 NW5       29.92R

$$

MDZ006>007-011-014-191300-
BALTIMORE METRO

CITY           SKY/WX    TMP DP  RH WIND       PRES   REMARKS
BWI AIRPORT    PTSUNNY   74  70  87 CALM      29.88R
MD SCIENCE CTR   N/A     78  68  71 MISG      29.88R
MARTIN STATE   PTSUNNY   73  73 100 NW8       29.89R
ANNAPOLIS      PTSUNNY   78  73  84 NW6       29.88R
FORT MEADE*    PTSUNNY   70  70 100 CALM      29.91R

$$

MDZ012-015-019>023-191300-
MARYLAND EASTERN SHORE

CITY           SKY/WX    TMP DP  RH WIND       PRES   REMARKS
OCEAN CITY     CLOUDY    76  75  97 NW7       29.88R
SALISBURY      CLOUDY    77  76  96 NW5       29.87R
BAY BRIDGE AP* CLOUDY    77  70  78 NW6       29.88R
CAMBRIDGE*     MOSUNNY   79  73  83 NW6       29.88R

$$

MDZ017>025-191300-
SOUTHERN MARYLAND

CITY           SKY/WX    TMP DP  RH WIND       PRES   REMARKS
PATUXENT RIVER PTSUNNY   77  73  87 W6        29.88R
ST INIGOES     PTSUNNY   77  73  87 W6        29.89R
LEONARDTOWN*   CLOUDY    73  70  88 CALM      29.91R

$$

MDZ003>005-191300-
NORTH CENTRAL MARYLAND

CITY           SKY/WX    TMP DP  RH WIND       PRES   REMARKS
FREDERICK*     SUNNY     73  73 100 CALM      29.93R
HAGERSTOWN APT SUNNY     74  65  73 W5        29.92R
WESTMINSTER*   SUNNY     73  66  78 NW5       29.91R

$$

MDZ501>502-191300-
WESTERN MARYLAND

CITY           SKY/WX    TMP DP  RH WIND       PRES   REMARKS
OAKLAND*       SUNNY     61  61 100 W6        30.00S
CUMBERLAND*    SUNNY     66  66 100 CALM      29.98R

$$

VAZ025>031-191300-
SHENANDOAH VALLEY

CITY           SKY/WX    TMP DP  RH WIND       PRES   REMARKS
WINCHESTER*    SUNNY     70  64  83 SW5       29.93R
FRONT ROYAL*   CLOUDY    70  70 100 S6        29.93R VSB 3/4
LURAY*         MOSUNNY   68  68 100 CALM      29.96R
NEW MARKET*    SUNNY     67  65  92 W5        29.96R
STAUNTON*      SUNNY     67  64  91 CALM      29.99R
WAYNESBORO*    SUNNY     71  66  84 SW5       29.99R

$$

WVZ021-048>050-054>055-191300-
EASTERN WEST VIRGINIA PANHANDLE

CITY           SKY/WX    TMP DP  RH WIND       PRES   REMARKS
MARTINSBURG    SUNNY     72  65  78 S3        29.91R
PETERSBURG*    MOSUNNY   67  66  96 CALM      29.97R

$$

VAZ036>039-050-191300-
CENTRAL FOOTHILLS

CITY           SKY/WX    TMP DP  RH WIND       PRES   REMARKS
CHARLOTTESVILL CLOUDY    76  70  82 CALM      29.93R
CULPEPER*      CLOUDY    74  72  95 CALM      29.93R
ORANGE*        CLOUDY    73  72  94 CALM      29.92R
GORDONSVILLE*  CLOUDY    76  74  94 CALM      29.92R
WARRENTON*     CLOUDY    75  69  81 CALM      29.91R

$$

VAZ055>057-191300-
NORTH AND CENTRAL PIEDMONT

CITY           SKY/WX    TMP DP  RH WIND       PRES   REMARKS
FREDERICKSBRG* CLOUDY    78  73  83 CALM      29.90R
STAFFORD*      CLOUDY    73  73 100 CALM      29.94R

$$

NCZ024-NYZ072-PAZ021-071-VAZ022-071-191300-
OTHER REGIONAL OBSERVATIONS

CITY           SKY/WX    TMP DP  RH WIND       PRES   REMARKS
NEW YORK CITY  MOSUNNY   75  71  87 VRB3      29.86R
PHILADELPHIA   PTSUNNY   77  70  79 NW8       29.86R
PITTSBURGH     CLOUDY    67  65  93 CALM      29.94R
ROANOKE        MOSUNNY   71  66  84 W7        30.01R
RICHMOND       PTSUNNY   77  76  96 CALM      29.90R
RALEIGH        MOSUNNY   76  74  93 VRB3      29.95R

$$

ANZ530>537-191300-
MARINE OBSERVATIONS

STATION/POSITION TIME  TEMP    WIND        PRES
                       AIR SEA DIR/SP/G
                 (UTC) (F)     (DEG/KT/KT) (MB)
THOMAS PT LIGHT  1200   76 80  320/  9/ 10   N/A
BALT KEY BRIDGE  1148   77     290/  9/ 10 1011.6R
COVE POINT       1148   78     340/ 10/ 12 1012.4R
LEWISETTA        1148   76 83  290/  3/  4 1012.2R
SOLOMONS ISLAND  1148   77 81  290/  3/  5   N/A
PINEY POINT      1136          340/ 10/ 12   N/A

$$





USA.gov is the U.S. government's official web portal to all federal, state and local government web resources and services.